Location: Barcelona
(41.3830°N, 2.1830°E)
Time: 03:42:06
(UTC+02:00)

ISS - Pass Details

Date: 07 July 2020
Orbit: 417 x 421 km, 51.6° (Epoch: 09 July)

Event Time Altitude Azimuth Distance (km) Brightness Sun altitude
Exits shadow 04:10:40 10° 296° (WNW) 1,508 -1.0 -18.9°
Reaches altitude 10° 04:10:42 10° 296° (WNW) 1,495 -1.0 -18.9°
Maximum altitude 04:13:12 19° 344° (NNW) 1,069 -1.2 -18.6°
Drops below altitude 10° 04:15:41 10° 32° (NNE) 1,498 0.3 -18.4°
Sets 04:18:12 0° 51° (NE) 2,363 1.5 -18.1°
